Time,TemperatureF,DewpointF,PressureIn,WindDirection,WindDirectionDegrees,WindSpeedMPH,WindSpeedGustMPH,Humidity,HourlyPrecipIn,Conditions,Clouds,dailyrainin,SoftwareType,DateUTC
2013-08-15 00:01:00,65.2,50.0,29.94,WNW,293,2.5,4.7,58,0.00,,,0.00,WUHU216HW,2013-08-15 04:01:00,
2013-08-15 00:06:00,65.2,50.5,29.94,NW,315,1.8,4.5,59,0.00,,,0.00,WUHU216HW,2013-08-15 04:06:00,
2013-08-15 00:11:00,65.2,50.9,29.94,NW,315,3.4,4.9,60,0.00,,,0.00,WUHU216HW,2013-08-15 04:11:00,
2013-08-15 00:16:00,65.0,49.8,29.94,NNW,338,5.4,5.4,58,0.00,,,0.00,WUHU216HW,2013-08-15 04:16:00,
2013-08-15 00:21:00,65.0,49.8,29.95,NW,315,4.0,5.6,58,0.00,,,0.00,WUHU216HW,2013-08-15 04:21:00,
2013-08-15 00:26:00,65.0,49.3,29.95,NW,315,1.8,5.6,57,0.00,,,0.00,WUHU216HW,2013-08-15 04:26:00,
2013-08-15 00:31:00,65.0,49.8,29.95,NW,315,2.0,4.3,58,0.00,,,0.00,WUHU216HW,2013-08-15 04:31:00,
2013-08-15 00:36:00,65.0,49.8,29.95,NW,315,2.0,3.8,58,0.00,,,0.00,WUHU216HW,2013-08-15 04:36:00,
2013-08-15 00:55:00,63.7,48.6,29.95,ESE,113,1.8,1.8,58,0.00,,,0.00,WUHU216HW,2013-08-15 04:55:00,
2013-08-15 01:00:00,63.0,49.0,29.95,ESE,113,2.7,2.9,60,0.00,,,0.00,WUHU216HW,2013-08-15 05:00:00,
2013-08-15 01:05:00,61.6,48.4,29.95,SE,135,3.4,4.5,62,0.00,,,0.00,WUHU216HW,2013-08-15 05:05:00,
2013-08-15 01:10:00,60.7,48.1,29.94,SSE,158,2.9,4.5,63,0.00,,,0.00,WUHU216HW,2013-08-15 05:10:00,
2013-08-15 01:15:00,59.9,47.7,29.95,SSE,158,1.8,3.4,64,0.00,,,0.00,WUHU216HW,2013-08-15 05:15:00,
2013-08-15 01:20:00,59.4,47.2,29.95,SE,135,1.3,3.4,64,0.00,,,0.00,WUHU216HW,2013-08-15 05:20:00,
2013-08-15 01:25:00,59.2,47.4,29.95,SE,135,0.9,2.2,65,0.00,,,0.00,WUHU216HW,2013-08-15 05:25:00,
2013-08-15 01:30:00,58.9,47.5,29.95,SE,135,2.2,3.1,66,0.00,,,0.00,WUHU216HW,2013-08-15 05:30:00,
2013-08-15 01:35:00,58.7,47.4,29.95,ESE,113,1.8,3.1,66,0.00,,,0.00,WUHU216HW,2013-08-15 05:35:00,
2013-08-15 01:40:00,58.1,47.6,29.95,SE,135,1.6,3.1,68,0.00,,,0.00,WUHU216HW,2013-08-15 05:40:00,
2013-08-15 01:45:00,58.0,47.4,29.95,SE,135,2.5,2.5,68,0.00,,,0.00,WUHU216HW,2013-08-15 05:45:00,
2013-08-15 01:50:00,57.6,47.5,29.95,SE,135,2.7,3.6,69,0.00,,,0.00,WUHU216HW,2013-08-15 05:50:00,
2013-08-15 01:55:00,57.2,47.2,29.95,SE,135,3.4,3.8,69,0.00,,,0.00,WUHU216HW,2013-08-15 05:55:00,
2013-08-15 02:00:00,56.9,46.8,29.95,SE,135,1.1,3.8,69,0.00,,,0.00,WUHU216HW,2013-08-15 06:00:00,
2013-08-15 02:05:00,56.5,46.9,29.95,SE,135,2.7,3.4,70,0.00,,,0.00,WUHU216HW,2013-08-15 06:05:00,
2013-08-15 02:10:00,56.2,46.9,29.95,SE,135,2.0,4.3,71,0.00,,,0.00,WUHU216HW,2013-08-15 06:10:00,
2013-08-15 02:15:00,55.8,46.9,29.95,SE,135,1.8,4.3,72,0.00,,,0.00,WUHU216HW,2013-08-15 06:15:00,
2013-08-15 02:20:00,55.4,46.9,29.96,ESE,113,1.1,3.4,73,0.00,,,0.00,WUHU216HW,2013-08-15 06:20:00,
2013-08-15 02:25:00,55.1,46.6,29.96,ESE,113,1.8,2.9,73,0.00,,,0.00,WUHU216HW,2013-08-15 06:25:00,
2013-08-15 02:30:00,55.1,46.6,29.96,SE,135,1.8,2.9,73,0.00,,,0.00,WUHU216HW,2013-08-15 06:30:00,
2013-08-15 02:35:00,54.9,46.7,29.96,SE,135,2.5,4.3,74,0.00,,,0.00,WUHU216HW,2013-08-15 06:35:00,
2013-08-15 02:40:00,54.7,46.9,29.96,SE,135,4.3,4.3,75,0.00,,,0.00,WUHU216HW,2013-08-15 06:40:00,
2013-08-15 02:45:00,54.5,46.8,29.96,SE,135,4.5,4.7,75,0.00,,,0.00,WUHU216HW,2013-08-15 06:45:00,
2013-08-15 02:50:00,54.4,46.6,29.96,SE,135,4.0,4.7,75,0.00,,,0.00,WUHU216HW,2013-08-15 06:50:00,
2013-08-15 02:55:00,54.4,46.6,29.96,ESE,113,1.6,4.5,75,0.00,,,0.00,WUHU216HW,2013-08-15 06:55:00,
2013-08-15 03:00:00,54.2,46.5,29.96,ESE,113,2.0,3.1,75,0.00,,,0.00,WUHU216HW,2013-08-15 07:00:00,
2013-08-15 03:05:00,54.2,46.5,29.96,East,90,3.8,3.8,75,0.00,,,0.00,WUHU216HW,2013-08-15 07:05:00,
2013-08-15 03:10:00,54.0,46.3,29.96,SE,135,1.1,3.8,75,0.00,,,0.00,WUHU216HW,2013-08-15 07:10:00,
2013-08-15 03:15:00,53.6,45.9,29.96,ESE,113,2.9,3.1,75,0.00,,,0.00,WUHU216HW,2013-08-15 07:15:00,
2013-08-15 03:20:00,53.5,45.7,29.96,ESE,113,2.5,3.4,75,0.00,,,0.00,WUHU216HW,2013-08-15 07:20:00,